Regional Weather Roundup
Issued by NWS

Home | Current Version | Previous Version | Graphics & Text | Print | Product List | Glossary On
Versions: 1 2 3 4 5 6 7 8 9 10 11 12 13 14 15 16 17 18 19 20 21 22 23 24 25 26 27 28 29 30 31 32 33 34 35 36 37 38 39 40 41 42 43 44 45 46
000
ASUS45 KSLC 240810
RWRUT

UTAH REGIONAL WEATHER ROUNDUP
NATIONAL WEATHER SERVICE SALT LAKE CITY UT
100 AM MST WED DEC 24 2014

UTZ001>011-023>025-240900-

NORTHERN UTAH

CITY           SKY/WX    TMP DP  RH WIND       PRES   REMARKS
BRIGHAM CITY   MOCLDY    27  24  86 CALM      30.30F
HILL AFB         N/A     26  15  62 E10       30.27F WCI  16
LOGAN          CLOUDY    24  20  84 CALM      30.29F
OGDEN            N/A     26  17  68 S8        30.28F WCI  18
PROVO AIRPORT    N/A     25  18  74 CALM      30.31F
SALT LAKE CITY   N/A     27  17  66 SE9       30.29F WCI  18
VERNAL           N/A     18  10  71 W7        30.23F WCI   9
WENDOVER         N/A     25  16  68 NE6       30.27F WCI  18
HEBER CITY       N/A     19  14  79 CALM      30.29S
WEST JORDAN    CLEAR     27  21  80 S7        30.29F WCI  19

$$

UTZ012>022-026-027-240900-

SOUTHERN/CENTRAL UTAH

CITY           SKY/WX    TMP DP  RH WIND       PRES   REMARKS
BLANDING         N/A     22  13  70 CALM      30.29F
BRYCE CANYON     N/A     17  11  77 NW8       30.24F WCI   7
CEDAR CITY       N/A     20  12  71 S3        30.28F
DELTA            N/A     24  21  90 E3        30.30F
MILFORD          N/A     19  14  81 SW7       30.29F WCI  10
MOAB/CYNLANDS    N/A     24  19  81 CALM      30.25F
PRICE            N/A     25   9  50 CALM      30.21F
ST GEORGE        N/A     37   9  30 S7        30.29F WCI  32
KANAB            N/A     23  19  86 NE6       30.30F WCI  16

$$

REGIONAL REPORTS     COLORADO/ARIZONA

CITY           SKY/WX    TMP DP  RH WIND       PRES   REMARKS
CRAIG, CO        N/A      0  -5  79 W5        30.25F WCI -10
GRAND JUNCTION   N/A     23  15  71 E8        30.28S WCI  14
RIFLE            N/A     16   8  71 SE5       30.29F WCI   9
MONTROSE         N/A     17  10  74 SE8       30.29F WCI   7
CORTEZ           N/A     25   7  46 NW9       30.19F WCI  15
PAGE, AZ         N/A     32  11  41 W3        30.25F HAZE
GRAND CANYON     N/A     17  11  77 NE5       30.24F WCI  10
KINGMAN          N/A     36  16  44 E8        30.25F WCI  30
FLAGSTAFF        N/A     27   2  34 E12       30.21F WCI  17

$$

REGIONAL REPORTS    NEVADA/IDAHO/WYOMING

CITY           SKY/WX    TMP DP  RH WIND       PRES   REMARKS
LAS VEGAS, NV    N/A     45  22  40 SW9       30.22F
ELY              N/A     22  18  85 S13       30.26F WCI  10
ELKO             N/A     27  23  85 NE3       30.21F
POCATELLO, ID  CLOUDY    32  22  66 CALM      30.20F
BURLEY           N/A     28  23  81 NE3       30.17F
EVANSTON, WY     N/A     14  10  84 SW8       30.20F WCI   3
ROCK SPRINGS     N/A     19  10  68 W18       30.15F WCI   4

$$


USA.gov is the U.S. government's official web portal to all federal, state and local government web resources and services.